Location: Bremen
(53.0793°N, 8.8017°E)
Time: 01:53:41
(UTC+01:00)

deb Explorer IX - Pass Details

Date: 15 December 2021
Orbit: 544 x 1082 km, 38.8° (Epoch: 16 January)

Event Time Altitude Azimuth Distance (km) Brightness Sun altitude
Rises 06:27:05 0° 221° (SW) 3,713 ? -17.4°
Reaches altitude 10° 06:30:55 10° 202° (SSW) 2,669 ? -16.8°
Maximum altitude 06:34:38 16° 166° (SSE) 2,145 ? -16.3°
Drops below altitude 10° 06:38:07 10° 129° (SE) 2,448 ? -15.8°
Sets 06:41:24 0° 109° (ESE) 3,264 ? -15.3°
